TimeCDT,TemperatureF,Dew PointF,Humidity,Sea Level PressureIn,VisibilityMPH,Wind Direction,Wind SpeedMPH,Gust SpeedMPH,PrecipitationIn,Events,Conditions,WindDirDegrees,DateUTC
12:51 AM,82.0,70.0,67,30.04,10.0,South,9.2,-,N/A,,Clear,180,2013-09-06 05:51:00
1:51 AM,80.1,70.0,71,30.03,10.0,SSW,6.9,-,N/A,,Clear,210,2013-09-06 06:51:00
2:51 AM,80.1,71.1,74,30.03,10.0,South,8.1,-,N/A,,Clear,190,2013-09-06 07:51:00
3:51 AM,77.0,71.1,82,30.02,10.0,SSW,6.9,-,N/A,,Clear,200,2013-09-06 08:51:00
4:51 AM,75.9,70.0,82,30.02,10.0,South,3.5,-,N/A,,Clear,170,2013-09-06 09:51:00
5:51 AM,75.0,70.0,84,30.03,10.0,Calm,Calm,-,N/A,,Clear,0,2013-09-06 10:51:00
6:51 AM,75.0,70.0,84,30.04,10.0,Calm,Calm,-,N/A,,Clear,0,2013-09-06 11:51:00
7:51 AM,75.9,70.0,82,30.05,10.0,Calm,Calm,-,N/A,,Clear,0,2013-09-06 12:51:00
8:51 AM,81.0,72.0,74,30.06,10.0,Calm,Calm,-,N/A,,Clear,0,2013-09-06 13:51:00
9:51 AM,86.0,71.1,61,30.08,10.0,NW,3.5,-,N/A,,Clear,320,2013-09-06 14:51:00
10:51 AM,91.0,69.1,48,30.08,10.0,Calm,Calm,-,N/A,,Clear,0,2013-09-06 15:51:00
11:51 AM,93.9,69.1,44,30.07,10.0,SE,4.6,-,N/A,,Partly Cloudy,140,2013-09-06 16:51:00
12:51 PM,97.0,64.0,34,30.04,10.0,SSE,11.5,16.1,N/A,,Partly Cloudy,160,2013-09-06 17:51:00
1:51 PM,97.0,63.0,32,30.02,9.0,South,11.5,-,N/A,,Partly Cloudy,190,2013-09-06 18:51:00
2:51 PM,97.0,63.0,32,29.99,5.0,SSW,10.4,-,N/A,,Haze,210,2013-09-06 19:51:00
3:51 PM,99.0,59.0,26,29.95,10.0,ESE,11.5,18.4,N/A,,Clear,120,2013-09-06 20:51:00
4:51 PM,98.1,57.0,25,29.93,10.0,Calm,Calm,-,N/A,,Clear,0,2013-09-06 21:51:00
5:51 PM,98.1,57.9,26,29.92,10.0,SSE,9.2,-,N/A,,Clear,150,2013-09-06 22:51:00
6:51 PM,96.1,54.0,24,29.92,10.0,ESE,5.8,-,N/A,,Clear,120,2013-09-06 23:51:00
7:51 PM,91.0,57.0,32,29.93,10.0,ESE,3.5,-,N/A,,Clear,110,2013-09-07 00:51:00
8:51 PM,88.0,57.9,36,29.94,10.0,SE,3.5,-,N/A,,Clear,140,2013-09-07 01:51:00
9:51 PM,89.1,60.1,38,29.95,10.0,SE,8.1,-,N/A,,Clear,140,2013-09-07 02:51:00
10:51 PM,87.1,69.1,55,29.96,10.0,South,13.8,-,N/A,,Overcast,170,2013-09-07 03:51:00
11:51 PM,84.9,70.0,61,29.96,10.0,South,11.5,-,N/A,,Mostly Cloudy,180,2013-09-07 04:51:00